EN

Hourly Weather Ozarow

Today, 26 February, Friday

Time Temperature Precipitation Wind Pressure Humidity
00:00 +5°C° 0 mm 4 mps 750 mmHg 87%
01:00 +4°C° 0 mm 4 mps 750 mmHg 87%
02:00 +4°C° 0 mm 4 mps 750 mmHg 88%
03:00 +4°C° 0 mm 4 mps 750 mmHg 89%
04:00 +4°C° 0 mm 4 mps 749 mmHg 90%
05:00 +3°C° 0 mm 3 mps 749 mmHg 91%
06:00 +3°C° 0 mm 3 mps 749 mmHg 92%
07:00 +3°C° 0 mm 3 mps 749 mmHg 93%
08:00 +4°C° 0 mm 3 mps 749 mmHg 91%
09:00 +7°C° 0 mm 3 mps 749 mmHg 88%
10:00 +8°C° 0 mm 3 mps 749 mmHg 86%
11:00 +9°C° 0 mm 3 mps 749 mmHg 83%
12:00 +10°C° 0 mm 3 mps 749 mmHg 81%
13:00 +11°C° 0 mm 3 mps 748 mmHg 78%
14:00 +10°C° 0.4 mm 4 mps 748 mmHg 82%
15:00 +7°C° 0.4 mm 4 mps 748 mmHg 86%
16:00 +6°C° 0.4 mm 5 mps 747 mmHg 90%
17:00 +5°C° 0.1 mm 5 mps 748 mmHg 87%
18:00 +5°C° 0.1 mm 5 mps 748 mmHg 85%
19:00 +5°C° 0.1 mm 5 mps 748 mmHg 82%
20:00 +3°C° 0 mm 5 mps 748 mmHg 83%
21:00 +3°C° 0 mm 5 mps 748 mmHg 84%
22:00 +2°C° 0 mm 5 mps 748 mmHg 85%
23:00 +2°C° 0 mm 5 mps 749 mmHg 86%

Tomorrow, 27 February, Saturday

Time Temperature Precipitation Wind Pressure Humidity
00:00 +2°C° 0 mm 5 mps 749 mmHg 86%
01:00 +1°C° 0 mm 5 mps 749 mmHg 87%
02:00 +1°C° 0 mm 5 mps 749 mmHg 87%
03:00 +1°C° 0 mm 5 mps 748 mmHg 86%
04:00 +1°C° 0 mm 6 mps 748 mmHg 85%
05:00 +1°C° 0 mm 6 mps 748 mmHg 86%
06:00 +1°C° 0 mm 6 mps 748 mmHg 86%
07:00 0°C° 0 mm 7 mps 749 mmHg 86%
08:00 0°C° 0 mm 7 mps 749 mmHg 85%
09:00 +2°C° 0 mm 7 mps 749 mmHg 84%
10:00 +2°C° 0 mm 7 mps 749 mmHg 82%
11:00 +2°C° 0 mm 7 mps 749 mmHg 79%
12:00 +2°C° 0 mm 8 mps 750 mmHg 75%
13:00 +2°C° 0 mm 8 mps 750 mmHg 71%
14:00 +2°C° 0 mm 8 mps 750 mmHg 71%
15:00 +3°C° 0 mm 7 mps 750 mmHg 70%
16:00 +2°C° 0 mm 7 mps 750 mmHg 70%
17:00 +2°C° 0 mm 7 mps 751 mmHg 72%
18:00 +2°C° 0 mm 6 mps 751 mmHg 74%
19:00 +1°C° 0 mm 6 mps 751 mmHg 76%
20:00 -1°C° 0 mm 6 mps 752 mmHg 80%
21:00 0°C° 0 mm 5 mps 752 mmHg 83%
22:00 -1°C° 0 mm 5 mps 752 mmHg 87%
23:00 -2°C° 0 mm 5 mps 752 mmHg 88%

Day after tomorrow, 28 February, Sunday

Time Temperature Precipitation Wind Pressure Humidity
00:00 -2°C° 0 mm 5 mps 753 mmHg 90%
01:00 -3°C° 0 mm 4 mps 753 mmHg 92%
02:00 -3°C° 0 mm 4 mps 753 mmHg 92%
03:00 -3°C° 0 mm 4 mps 753 mmHg 92%
04:00 -3°C° 0 mm 4 mps 753 mmHg 92%
05:00 -3°C° 0 mm 4 mps 754 mmHg 91%
06:00 -3°C° 0 mm 4 mps 754 mmHg 90%
07:00 -3°C° 0 mm 4 mps 754 mmHg 88%
08:00 -2°C° 0 mm 4 mps 754 mmHg 85%
09:00 -1°C° 0 mm 4 mps 754 mmHg 82%
10:00 -1°C° 0 mm 4 mps 754 mmHg 79%
11:00 0°C° 0 mm 4 mps 754 mmHg 73%
12:00 +3°C° 0 mm 4 mps 755 mmHg 67%
13:00 +3°C° 0 mm 5 mps 755 mmHg 62%
14:00 +3°C° 0 mm 5 mps 754 mmHg 63%
15:00 +4°C° 0 mm 4 mps 754 mmHg 65%
16:00 +3°C° 0 mm 4 mps 754 mmHg 67%
17:00 +3°C° 0 mm 4 mps 754 mmHg 72%
18:00 +1°C° 0 mm 4 mps 754 mmHg 76%
19:00 0°C° 0 mm 4 mps 754 mmHg 81%
20:00 0°C° 0 mm 4 mps 754 mmHg 82%
21:00 0°C° 0 mm 4 mps 754 mmHg 84%
22:00 0°C° 0 mm 4 mps 754 mmHg 85%
23:00 -1°C° 0 mm 4 mps 755 mmHg 86%

1 March, Monday

Time Temperature Precipitation Wind Pressure Humidity
00:00 -1°C° 0 mm 4 mps 755 mmHg 87%
01:00 -1°C° 0 mm 4 mps 755 mmHg 88%
02:00 0°C° 0 mm 3 mps 755 mmHg 90%
03:00 0°C° 0 mm 3 mps 755 mmHg 93%
04:00 0°C° 0 mm 3 mps 755 mmHg 95%
05:00 0°C° 0 mm 3 mps 755 mmHg 95%
06:00 0°C° 0 mm 3 mps 756 mmHg 96%
07:00 +1°C° 0 mm 2 mps 756 mmHg 96%
08:00 +2°C° 0 mm 2 mps 756 mmHg 94%
09:00 +2°C° 0 mm 2 mps 757 mmHg 91%
10:00 +3°C° 0 mm 2 mps 757 mmHg 89%
11:00 +4°C° 0 mm 2 mps 757 mmHg 83%
12:00 +5°C° 0 mm 2 mps 757 mmHg 78%
13:00 +6°C° 0 mm 2 mps 757 mmHg 73%
14:00 +6°C° 0 mm 2 mps 757 mmHg 73%
15:00 +6°C° 0 mm 2 mps 757 mmHg 73%
16:00 +7°C° 0 mm 2 mps 757 mmHg 73%
17:00 +6°C° 0 mm 2 mps 757 mmHg 77%
18:00 +5°C° 0 mm 2 mps 757 mmHg 80%
19:00 +4°C° 0 mm 2 mps 758 mmHg 84%
20:00 +4°C° 0 mm 2 mps 758 mmHg 86%
21:00 +3°C° 0 mm 2 mps 758 mmHg 88%
22:00 +3°C° 0 mm 2 mps 758 mmHg 89%
23:00 +2°C° 0 mm 2 mps 758 mmHg 90%

2 March, Tuesday

Time Temperature Precipitation Wind Pressure Humidity
00:00 +2°C° 0 mm 2 mps 758 mmHg 91%
01:00 +1°C° 0 mm 3 mps 758 mmHg 92%
02:00 0°C° 0 mm 3 mps 758 mmHg 92%
03:00 0°C° 0 mm 3 mps 758 mmHg 92%
04:00 0°C° 0 mm 3 mps 757 mmHg 92%
05:00 0°C° 0 mm 3 mps 757 mmHg 91%
06:00 0°C° 0 mm 3 mps 757 mmHg 91%
07:00 0°C° 0 mm 3 mps 757 mmHg 91%
08:00 +1°C° 0 mm 3 mps 757 mmHg 85%
09:00 +3°C° 0 mm 3 mps 757 mmHg 80%
10:00 +4°C° 0 mm 3 mps 758 mmHg 75%
11:00 +5°C° 0 mm 3 mps 757 mmHg 70%
12:00 +8°C° 0 mm 3 mps 757 mmHg 65%
13:00 +9°C° 0 mm 3 mps 757 mmHg 61%
14:00 +9°C° 0 mm 3 mps 757 mmHg 62%
15:00 +9°C° 0 mm 3 mps 756 mmHg 63%
16:00 +9°C° 0 mm 3 mps 756 mmHg 64%
17:00 +7°C° 0 mm 3 mps 756 mmHg 68%
18:00 +5°C° 0 mm 3 mps 756 mmHg 73%
19:00 +5°C° 0 mm 2 mps 755 mmHg 78%
20:00 +5°C° 0 mm 2 mps 755 mmHg 79%
21:00 +3°C° 0 mm 3 mps 755 mmHg 80%
22:00 +3°C° 0 mm 3 mps 755 mmHg 82%
23:00 +2°C° 0 mm 3 mps 755 mmHg 81%

3 March, Wednesday

Time Temperature Precipitation Wind Pressure Humidity
00:00 +2°C° 0 mm 3 mps 755 mmHg 80%
01:00 +2°C° 0 mm 3 mps 755 mmHg 80%
02:00 +1°C° 0 mm 3 mps 754 mmHg 80%
03:00 +1°C° 0 mm 3 mps 754 mmHg 80%
04:00 0°C° 0 mm 3 mps 754 mmHg 81%
05:00 0°C° 0 mm 3 mps 754 mmHg 82%
06:00 0°C° 0 mm 3 mps 754 mmHg 83%
07:00 0°C° 0 mm 3 mps 753 mmHg 85%
08:00 +2°C° 0 mm 3 mps 753 mmHg 79%
09:00 +3°C° 0 mm 3 mps 753 mmHg 73%
10:00 +5°C° 0 mm 3 mps 753 mmHg 66%
11:00 +6°C° 0 mm 4 mps 753 mmHg 62%
12:00 +8°C° 0 mm 4 mps 752 mmHg 58%
13:00 +10°C° 0 mm 4 mps 752 mmHg 54%
14:00 +10°C° 0 mm 4 mps 752 mmHg 56%
15:00 +8°C° 0 mm 4 mps 751 mmHg 58%
16:00 +9°C° 0 mm 3 mps 751 mmHg 59%
17:00 +8°C° 0 mm 3 mps 751 mmHg 65%
18:00 +7°C° 0 mm 3 mps 751 mmHg 70%
19:00 +4°C° 0 mm 3 mps 750 mmHg 76%
20:00 +4°C° 0 mm 3 mps 750 mmHg 78%
21:00 +4°C° 0 mm 3 mps 750 mmHg 80%
22:00 +3°C° 0 mm 3 mps 750 mmHg 82%
23:00 +3°C° 0 mm 3 mps 750 mmHg 85%
Show more

We Need Your Consent

Meteoprog and our Service Providers may store and access personal data such as cookies, device identifiers or other similar technologies on your device and process such data to personalise content and ads, as well as provide social media features and to analyse the traffic.

  • Store and/or access information on your device

    Cookies, device identifiers or other information can be stored or accessed on your device for the purposes indicated above.

  • Personalised ads and content, ad and content measurement, audience insights, and products development

    Ads and content can be personalised based on a profile. More data can be added to better personalise ads and content. Ad and content performance can be measured. Insights about the audience who saw the ads and content can be derived. Such data can be used to develop or improve user’s experience, systems and software.

By clicking ‘I Agree’ you will allow the use of indicated cookies, device identifiers, web beacons or other similar technologies. Your settings can be changed in the browser on your device.

For certain purposes, legitimate interests may be relied on, rather than consent. You can read more about this in our Privacy and Cookie Policy.